STARLINK-33905, 63881

Orbit data source: Space-Track

STARLINK-33905, 63881 is a payload satellite owned by SpaceX/Seattle (US) in LEO that was launched on Sat, 10 May 2025 UTC via an FALCON 9 launch vehicle from the Air Force Western Test Range (AFWTR). Payload-class satellites include a variety of spacecraft equipped with specific instruments for various scientific and technological missions. These include communications satellites like Starlink; space stations such as the ISS; scientific satellites like the Hubble; Earth observation satellites from companies like Planet Labs, Umbra, and HawkEye 360; GPS; miniature CubeSats for education and research; and military/defense satellites.

Loading next visibility...
Identifier
63881, 2025-094T
Orbit
LEO
Country
Flag of USUS
Related business
Manufacturer
SpaceX/Seattle
Mission
Operational Commercial Communications
Bus & Motor
STARLINK V2MO, Unknown motor
Mass
575 kg wet, ~530 kg dry
Launch date (UTC)
2025-05-10 (1 year ago)
Launch vehicle
FALCON 9
Launch site
Air Force Western Test Range (AFWTR)
Object type
Payload
Rocket body
Debris
Shape & HBR
Box + 2 Pan, 17.7 m
Radar Cross Section
36.964 m², Large (>1 m²)

Expand to show TLE details & history
Last TLE update: 23 hours ago

TLE from 23 hours ago
0 STARLINK-33905
1 63881U 25094T   26170.87687189  .00004262  00000-0  36465-3 0  9997
2 63881  70.0023 336.6557 0002600 263.5930  96.4934 14.98339563 62511
Epoch: 2026-06-19T21:02Z
TLE epoch observation values (Epoch: 2026-06-19T21:02:41.731Z)
Latitude
0.00008°
Longitude
112.8823°
Altitude
574.655 km
Speed
7.574 km/s
True Right ascension
22h 26m 37s
True Declination
0° 00' 00"
Sunlit
Object was in daylight at epoch
Visualization orbit readout
Latitude
Unknown
Longitude
Unknown
Altitude
Unknown
Speed
Unknown
Apparent Right ascension
Unknown
Apparent Declination
Unknown
Sunlit
N/A
Visualization observer readout
Local Sidereal Time
07:18:14
Azimuth
Unknown
Elevation
Unknown
Doppler factor
Unknown
Orbital elements
Apogee altitude
571.781 km
Perigee altitude
568.168 km
Semi-major axis
6,948.111 km
Eccentricity
0.00026
Inclination
70.0023°
RAAN
336.6557°
Arg. of periapsis
263.593°
True anomaly
96.523°
Mean anomaly
96.4934°
Eccentric anomaly
96.5082°
Mean motion
3.74751 °/min
Orbital period
96.06 mins
BSTAR
0.00036465
Loading maneuver chart data...
Computing Atmospheric mass density...
Loading historical data...
Loading historical data...
Loading historical data...
Loading historical data...
Loading historical data...
Loading historical data...
Loading historical data...

Documentation

Showing up to 5 results
|